When you browse on this site, cookies collect data to enhance your experience and personalize the content and advertising you see.
Visit our Privacy Policy to learn more. By continuing to use the site, you agree to this use of cookies and data.
  • In Romania
  • List of Countries
  • For 7 days
  • Water Temperature
  • Satellite Maps
  • Weather Map
  • Weather Widgets
  • user-avatar
    Login

    Hourly Weather Durham

    Today, 25 June, Tuesday

    Time Temperature Precipitation Wind Pressure Humidity
    00:00 +15°C° 0 mm 1 mps 759 mmHg 94%
    01:00 +15°C° 0 mm 2 mps 759 mmHg 94%
    02:00 +15°C° 0 mm 2 mps 759 mmHg 94%
    03:00 +14°C° 0 mm 3 mps 758 mmHg 95%
    04:00 +14°C° 0 mm 3 mps 759 mmHg 94%
    05:00 +14°C° 0 mm 4 mps 759 mmHg 94%
    06:00 +14°C° 0 mm 4 mps 759 mmHg 91%
    07:00 +14°C° 0 mm 4 mps 760 mmHg 91%
    08:00 +14°C° 0 mm 4 mps 760 mmHg 91%
    09:00 +14°C° 0 mm 4 mps 760 mmHg 91%
    10:00 +14°C° 0.3 mm 5 mps 760 mmHg 91%
    11:00 +14°C° 0.3 mm 5 mps 761 mmHg 92%
    12:00 +13°C° 0 mm 6 mps 761 mmHg 90%
    13:00 +13°C° 1 mm 5 mps 761 mmHg 92%
    14:00 +13°C° 1 mm 5 mps 762 mmHg 93%
    15:00 +13°C° 1 mm 5 mps 762 mmHg 95%
    16:00 +13°C° 0 mm 5 mps 762 mmHg 94%
    17:00 +13°C° 0 mm 5 mps 762 mmHg 94%
    18:00 +12°C° 0 mm 4 mps 762 mmHg 94%
    19:00 +12°C° 0 mm 5 mps 763 mmHg 94%
    20:00 +12°C° 0 mm 5 mps 763 mmHg 94%
    21:00 +12°C° 0 mm 5 mps 764 mmHg 94%
    22:00 +12°C° 0 mm 5 mps 764 mmHg 93%
    23:00 +11°C° 0 mm 4 mps 765 mmHg 93%

    Tomorrow, 26 June, Wednesday

    Time Temperature Precipitation Wind Pressure Humidity
    00:00 +11°C° 0 mm 4 mps 765 mmHg 92%
    01:00 +11°C° 0 mm 4 mps 765 mmHg 92%
    02:00 +11°C° 0 mm 4 mps 765 mmHg 92%
    03:00 +11°C° 0 mm 4 mps 765 mmHg 91%
    04:00 +11°C° 0 mm 4 mps 765 mmHg 91%
    05:00 +11°C° 0 mm 4 mps 766 mmHg 90%
    06:00 +11°C° 0 mm 4 mps 766 mmHg 89%
    07:00 +12°C° 0 mm 4 mps 767 mmHg 87%
    08:00 +12°C° 0 mm 4 mps 767 mmHg 84%
    09:00 +12°C° 0 mm 4 mps 767 mmHg 81%
    10:00 +13°C° 0 mm 4 mps 767 mmHg 77%
    11:00 +15°C° 0 mm 4 mps 768 mmHg 73%
    12:00 +17°C° 0 mm 4 mps 768 mmHg 68%
    13:00 +17°C° 0 mm 4 mps 768 mmHg 67%
    14:00 +17°C° 0 mm 3 mps 768 mmHg 65%
    15:00 +17°C° 0 mm 3 mps 768 mmHg 64%
    16:00 +17°C° 0 mm 3 mps 767 mmHg 65%
    17:00 +16°C° 0 mm 2 mps 767 mmHg 66%
    18:00 +16°C° 0 mm 2 mps 767 mmHg 68%
    19:00 +14°C° 0 mm 1 mps 768 mmHg 71%
    20:00 +13°C° 0 mm 1 mps 768 mmHg 75%
    21:00 +10°C° 0 mm 0 mps 768 mmHg 79%
    22:00 +11°C° 0 mm 1 mps 768 mmHg 78%
    23:00 +11°C° 0 mm 1 mps 768 mmHg 76%

    Day after tomorrow, 27 June, Thursday

    Time Temperature Precipitation Wind Pressure Humidity
    00:00 +11°C° 0 mm 1 mps 769 mmHg 74%
    01:00 +11°C° 0 mm 1 mps 769 mmHg 71%
    02:00 +11°C° 0 mm 1 mps 768 mmHg 68%
    03:00 +11°C° 0 mm 1 mps 768 mmHg 65%
    04:00 +12°C° 0 mm 1 mps 768 mmHg 66%
    05:00 +14°C° 0 mm 1 mps 768 mmHg 67%
    06:00 +15°C° 0 mm 1 mps 768 mmHg 68%
    07:00 +16°C° 0 mm 1 mps 769 mmHg 68%
    08:00 +17°C° 0 mm 2 mps 769 mmHg 68%
    09:00 +18°C° 0 mm 2 mps 769 mmHg 68%
    10:00 +19°C° 0 mm 3 mps 769 mmHg 68%
    11:00 +19°C° 0 mm 3 mps 769 mmHg 69%
    12:00 +19°C° 0 mm 3 mps 769 mmHg 69%
    13:00 +19°C° 0 mm 3 mps 769 mmHg 70%
    14:00 +19°C° 0 mm 3 mps 768 mmHg 71%
    15:00 +19°C° 0 mm 3 mps 768 mmHg 72%
    16:00 +18°C° 0 mm 3 mps 768 mmHg 74%
    17:00 +17°C° 0 mm 3 mps 768 mmHg 77%
    18:00 +17°C° 0 mm 2 mps 767 mmHg 79%
    19:00 +15°C° 0 mm 2 mps 768 mmHg 83%
    20:00 +14°C° 0 mm 2 mps 768 mmHg 88%
    21:00 +12°C° 0 mm 1 mps 768 mmHg 92%
    22:00 +12°C° 0 mm 1 mps 768 mmHg 93%
    23:00 +11°C° 0 mm 1 mps 768 mmHg 93%

    28 June, Friday

    Time Temperature Precipitation Wind Pressure Humidity
    00:00 +10°C° 0 mm 0 mps 767 mmHg 94%
    01:00 +10°C° 0 mm 0 mps 767 mmHg 94%
    02:00 +11°C° 0 mm 1 mps 767 mmHg 94%
    03:00 +11°C° 0 mm 1 mps 767 mmHg 95%
    04:00 +11°C° 0 mm 1 mps 766 mmHg 94%
    05:00 +12°C° 0 mm 1 mps 766 mmHg 92%
    06:00 +13°C° 0 mm 1 mps 766 mmHg 91%
    07:00 +14°C° 0 mm 2 mps 766 mmHg 87%
    08:00 +15°C° 0 mm 2 mps 766 mmHg 83%
    09:00 +16°C° 0 mm 2 mps 765 mmHg 79%
    10:00 +17°C° 0 mm 3 mps 765 mmHg 76%
    11:00 +18°C° 0 mm 3 mps 765 mmHg 73%
    12:00 +20°C° 0 mm 3 mps 764 mmHg 70%
    13:00 +20°C° 0 mm 4 mps 764 mmHg 70%
    14:00 +19°C° 0 mm 4 mps 764 mmHg 71%
    15:00 +19°C° 0 mm 5 mps 763 mmHg 71%
    16:00 +19°C° 0 mm 5 mps 763 mmHg 73%
    17:00 +19°C° 0 mm 4 mps 762 mmHg 74%
    18:00 +19°C° 0 mm 4 mps 762 mmHg 75%
    19:00 +17°C° 0 mm 4 mps 762 mmHg 79%
    20:00 +15°C° 0 mm 4 mps 761 mmHg 84%
    21:00 +13°C° 0 mm 3 mps 761 mmHg 88%
    22:00 +12°C° 0 mm 3 mps 761 mmHg 88%
    23:00 +12°C° 0 mm 3 mps 761 mmHg 89%

    29 June, Saturday

    Time Temperature Precipitation Wind Pressure Humidity
    00:00 +11°C° 0 mm 3 mps 760 mmHg 90%
    01:00 +11°C° 0 mm 3 mps 760 mmHg 91%
    02:00 +10°C° 0 mm 3 mps 759 mmHg 91%
    03:00 +10°C° 0 mm 3 mps 759 mmHg 92%
    04:00 +11°C° 0 mm 3 mps 758 mmHg 90%
    05:00 +12°C° 0 mm 3 mps 758 mmHg 88%
    06:00 +12°C° 0 mm 4 mps 757 mmHg 87%
    07:00 +14°C° 0 mm 4 mps 757 mmHg 84%
    08:00 +17°C° 0 mm 4 mps 756 mmHg 81%
    09:00 +19°C° 0 mm 5 mps 756 mmHg 78%
    10:00 +20°C° 0 mm 5 mps 755 mmHg 77%
    11:00 +21°C° 0 mm 4 mps 755 mmHg 76%
    12:00 +22°C° 0 mm 4 mps 754 mmHg 75%
    13:00 +22°C° 0.1 mm 4 mps 754 mmHg 74%
    14:00 +23°C° 0.1 mm 5 mps 753 mmHg 74%
    15:00 +25°C° 0.1 mm 5 mps 753 mmHg 73%
    16:00 +23°C° 0.2 mm 4 mps 752 mmHg 79%
    17:00 +22°C° 0.2 mm 4 mps 752 mmHg 84%
    18:00 +20°C° 0.2 mm 3 mps 751 mmHg 89%
    19:00 +19°C° 0.1 mm 4 mps 751 mmHg 88%
    20:00 +18°C° 0.1 mm 4 mps 751 mmHg 88%
    21:00 +17°C° 0.1 mm 4 mps 750 mmHg 87%
    22:00 +15°C° 0 mm 5 mps 750 mmHg 86%
    23:00 +14°C° 0 mm 6 mps 750 mmHg 86%

    30 June, Sunday

    Time Temperature Precipitation Wind Pressure Humidity
    00:00 +14°C° 0 mm 6 mps 750 mmHg 86%
    01:00 +14°C° 0 mm 6 mps 750 mmHg 86%
    02:00 +14°C° 0 mm 6 mps 750 mmHg 86%
    03:00 +14°C° 0 mm 5 mps 750 mmHg 85%
    04:00 +15°C° 0 mm 5 mps 750 mmHg 85%
    05:00 +15°C° 0 mm 6 mps 750 mmHg 85%
    06:00 +15°C° 0 mm 6 mps 750 mmHg 85%
    07:00 +16°C° 0 mm 6 mps 751 mmHg 82%
    08:00 +17°C° 0 mm 6 mps 751 mmHg 78%
    09:00 +19°C° 0 mm 5 mps 751 mmHg 74%
    10:00 +19°C° 0 mm 6 mps 751 mmHg 71%
    11:00 +20°C° 0 mm 7 mps 751 mmHg 68%
    12:00 +21°C° 0 mm 7 mps 752 mmHg 65%
    13:00 +20°C° 0.1 mm 8 mps 752 mmHg 67%
    14:00 +18°C° 0.1 mm 8 mps 752 mmHg 69%
    15:00 +18°C° 0.1 mm 9 mps 752 mmHg 70%
    16:00 +17°C° 0 mm 8 mps 752 mmHg 72%
    17:00 +16°C° 0 mm 7 mps 752 mmHg 74%
    18:00 +16°C° 0 mm 7 mps 752 mmHg 76%
    19:00 +15°C° 0 mm 6 mps 753 mmHg 77%
    20:00 +14°C° 0 mm 5 mps 753 mmHg 79%
    21:00 +13°C° 0 mm 5 mps 754 mmHg 80%
    22:00 +12°C° 0 mm 5 mps 754 mmHg 81%
    23:00 +10°C° 0 mm 5 mps 754 mmHg 81%
    Show more